カタログに戻る

INSAT 2A

運用中通信GEO
NORAD 22027·PAYLOAD·🇮🇳 India

打ち上げ Jul 9, 1992 から Guiana Space Centre

Loading…

TLE

最新Source: Space-Track

元期: Sep 14, 2026, 15:01 UTC

1 22027U 92041A   26257.62636647 -.00000212  00000-0  00000+0 0  9996
2 22027  14.4720 351.1304 0010672 275.1362 105.5267  1.00232105124953

AllMySatでINSAT 2Aをリアルタイム追跡

Download on the App Store